Погода в Васькове

Россия / Кемеровская область (Кузбасс)     55°02′27″N   85°05′13″E
темп.,
°C
ветер,
м/с
пор.,
м/с
влажн.,
%
обл.,
%
осадки,
мм/ч
давл.,
гПа
погр.,
м
18 июня, пт
пт1801:00+16юз33911 0.7 100733
04:00+15юз349540 0.0 100663
07:00+17зюз2692100 0.0 1006170
10:00+21юз4782100 0.4 1005511
13:00+25зюз476583 1.9 10051261
16:00+26з575991 0.1 10041247
19:00+26з25705 0.7 1002784
22:00+20ю36805 0.1 100288
19 июня, сб
сб1901:00+18ююз37870 0.1 1001106
04:00+17ю228961 0.0 100029
07:00+19юв3789100 0.1 999221
10:00+21всв0182100 0.0 99931
13:00+25зюз5763100 0.0 9981363
16:00+19зсз798752 3.3 1000514
19:00+15зсз798167 3.7 1002682
22:00+13зсз697663 0.0 1004696
20 июня, вс
вс2001:00+9з487884 0.0 1005286
04:00+9зсз4779100 0.1 1006445
07:00+8зсз3687100 0.6 1008389
10:00+9зюз4679100 0.4 1009673
13:00+12зюз477395 0.6 10101311
16:00+14з575774 0.1 10101567
19:00+14юз476591 0.1 1011806
22:00+10ююз4107175 0.1 1012220
21 июня, пн
пн2101:00+8ю310795 0.1 1011184
04:00+8ю512815 0.0 1010275
07:00+11ююв512763 0.0 1009399
10:00+16юв7116051 0.0 1007826
13:00+19юв81250100 0.0 10042273
16:00+14ю81672100 0.1 10041176
19:00+14ююв71472100 0.2 10031134
22:00+11ююв61392100 0.3 1003595
22 июня, вт
вт2201:00+11ю6129078 0.4 1002669
04:00+10ю71288100 0.1 1002960
07:00+9ю61190100 0.3 1003828
10:00+10ю61187100 0.3 10041163
13:00+11ююз5108592 0.5 1005886
16:00+10ююз71277100 0.1 10071234
19:00+9ююз5982100 0.2 10081198
22:00+8ю5986100 0.1 1009892